Wind_Speed
8 7 7 8 9 11 13 15 17 17 17 17 16 17 17 17 15 13 10 8 5 5 7 10 13 15 20 20 21 22 21 19 16 13 11 9 8 7 6 5 4 3 2 1
7 7 9 9 10 12 13 15 16 17 16 15 15 15 16 15 14 13 10 8 6 4 3 7 11 14 17 19 19 19 18 17 15 13 10 9 9 8 6 5 4 3 2 1
8 8 9 10 11 12 13 15 16 16 16 14 14 14 14 14 14 12 11 8 7 4 1 3 8 11 14 16 17 17 16 16 14 12 10 10 9 8 6 5 4 3 3 2
9 9 9 9 11 12 13 15 15 15 14 13 13 13 13 12 12 11 9 8 7 4 1 1 5 9 13 15 15 15 15 15 14 12 11 10 9 8 7 6 5 4 3 2
10 11 10 10 12 13 14 16 14 13 12 12 12 11 12 10 11 10 9 7 7 5 3 2 4 8 11 12 13 14 14 13 12 12 10 10 9 8 7 6 5 4 4 3
11 11 12 12 13 14 16 16 14 12 11 11 12 10 10 9 9 9 8 6 6 5 3 3 3 6 10 12 13 13 13 12 12 11 10 10 9 8 7 6 6 5 5 4
11 12 13 13 13 14 16 14 12 10 10 11 12 10 9 9 7 7 7 6 5 4 4 3 4 6 8 10 12 12 12 12 11 10 10 9 8 8 7 7 6 6 6 6
13 13 14 14 14 16 15 12 10 9 8 10 12 9 10 9 8 6 5 5 4 4 4 2 3 4 7 8 10 11 11 11 10 10 9 9 8 7 7 7 7 7 7 8
13 15 16 15 15 15 13 11 11 10 10 9 9 10 10 10 9 6 5 4 3 3 3 2 1 2 4 6 8 9 10 10 10 10 9 9 8 8 8 8 8 8 9 9
16 17 17 17 16 14 13 13 11 8 9 8 9 9 9 9 8 7 6 5 4 3 2 1 1 3 4 6 7 8 9 10 10 10 10 10 10 10 10 10 10 11 11 12
17 17 16 16 15 15 14 13 11 10 10 8 8 9 11 9 9 8 7 7 6 6 5 4 4 4 5 7 8 9 10 10 11 11 12 12 12 13 13 13 14 14 15 16
16 16 16 15 14 14 13 12 11 10 11 10 8 10 11 10 10 10 9 9 8 8 8 7 7 7 7 8 9 10 11 12 13 13 14 15 15 16 16 17 17 18 19 20
16 16 16 15 15 14 13 11 11 10 10 9 7 9 13 12 11 11 11 11 10 10 10 10 10 10 10 10 11 12 13 14 15 16 17 17 18 19 20 21 21 22 23 23
17 17 16 14 15 15 14 13 12 11 9 9 9 11 13 14 13 13 12 13 12 12 12 12 12 13 13 13 13 14 15 16 17 18 19 20 21 21 22 23 24 25 26 27
19 18 17 17 18 16 16 15 14 13 12 11 11 12 14 14 14 14 14 14 14 14 14 14 14 15 15 16 16 16 17 17 18 19 20 21 22 23 24 26 27 28 28 29
20 19 18 18 18 18 17 16 15 14 14 13 12 13 13 14 15 16 15 15 16 16 16 17 17 17 18 19 20 20 20 20 21 22 23 23 24 25 26 28 29 29 30 31
22 20 19 18 19 18 16 15 16 16 15 15 14 15 14 15 16 17 18 18 18 19 20 20 20 20 21 22 23 23 23 23 24 24 26 27 27 28 29 30 31 32 32 33
23 21 20 19 20 19 17 17 17 18 17 17 17 17 16 17 17 19 20 20 20 21 22 23 24 24 25 25 25 26 26 26 27 28 29 30 31 31 32 33 33 35 35 36
25 23 22 21 20 18 19 18 19 18 18 18 19 19 19 19 20 20 21 21 22 23 25 26 27 28 29 29 29 29 30 30 31 31 32 32 33 34 35 36 36 37 38 38
26 23 22 22 21 20 21 19 18 18 18 18 18 19 20 20 21 21 21 23 24 25 27 29 30 31 32 31 32 32 33 34 34 34 34 34 35 36 37 38 39 40 40 41
26 23 23 22 21 21 21 19 18 18 18 18 18 19 19 20 21 22 23 24 25 26 27 29 30 32 33 33 33 32 33 35 36 37 37 37 38 38 40 41 42 43 44 44
25 24 24 23 22 22 21 20 20 19 19 19 19 19 19 20 21 22 24 24 26 27 28 30 31 31 32 32 33 34 35 36 37 38 39 39 40 41 42 44 45 46 46 47
26 24 23 23 23 23 21 21 21 21 21 21 20 21 21 21 22 23 24 25 26 28 29 31 32 33 32 32 33 34 35 36 37 39 40 40 42 43 44 45 46 47 48 49
22 23 23 22 23 23 23 22 22 22 23 23 23 23 23 24 24 25 26 26 27 28 29 30 31 31 31 32 33 34 35 36 38 40 40 42 43 44 45 46 48 49 50 51
23 23 23 24 24 23 24 24 24 24 25 25 25 25 25 26 27 27 27 27 27 27 27 26 27 28 30 32 33 34 35 36 38 39 41 42 44 45 46 48 49 51 52 54
20 20 21 22 22 24 24 24 24 25 25 26 26 26 26 27 28 28 29 29 29 29 28 28 29 30 32 33 34 35 36 38 39 41 42 44 45 47 48 50 52 54 56 57
Wind_Direction
307 305 307 309 321 328 333 335 334 331 334 336 336 341 345 348 351 353 349 342 322 283 237 221 214 214 212 213 212 212 209 207 205 204 206 205 198 194 192 188 183 181 176 165
288 291 298 306 319 329 334 336 336 333 336 338 341 343 346 352 356 1 0 1 353 330 247 222 220 217 212 205 204 201 197 196 197 199 198 195 186 182 183 183 184 186 183 170
269 276 292 302 315 325 329 332 333 334 335 338 343 346 349 355 359 6 9 10 7 355 297 209 201 200 197 194 192 193 192 191 189 190 192 190 185 182 182 182 183 187 184 177
260 272 284 296 308 318 321 326 330 333 338 338 343 350 348 355 2 8 13 16 17 15 20 168 193 190 188 187 189 188 184 184 184 186 189 190 187 185 186 184 185 188 184 174
256 266 275 286 298 310 316 320 325 330 334 336 338 348 344 352 2 7 12 18 24 30 54 95 160 174 176 178 179 179 178 181 183 184 189 190 189 190 187 186 187 191 193 198
253 262 271 280 292 304 315 319 323 330 336 333 329 340 341 344 356 4 7 14 22 32 59 78 129 159 168 175 178 180 180 182 183 187 190 193 194 191 191 194 197 205 213 222
256 263 271 279 292 300 311 321 329 329 328 314 316 322 323 331 340 353 6 14 20 29 46 74 110 148 164 174 179 182 184 184 189 194 195 198 198 199 204 206 211 220 229 238
248 258 268 274 285 293 303 311 307 297 299 308 311 310 307 316 325 337 352 7 19 22 34 70 116 151 167 174 182 183 185 192 197 200 202 203 206 210 216 221 226 233 239 245
245 255 261 269 279 289 295 298 296 297 301 313 304 301 304 303 311 317 330 347 353 359 13 33 95 141 165 177 183 190 197 204 207 208 210 214 220 224 229 233 237 242 247 252
249 258 262 266 275 279 285 293 294 296 294 299 304 302 289 294 303 304 302 306 317 309 300 301 250 217 210 205 205 208 211 215 217 220 223 226 230 235 239 243 246 250 255 258
254 260 263 266 273 277 279 284 286 287 284 286 287 284 277 279 287 294 295 292 291 291 286 274 259 246 237 230 226 225 224 226 229 231 233 236 239 242 247 250 253 256 260 263
253 256 255 263 270 272 276 278 280 288 290 287 277 277 273 271 276 283 285 284 282 280 277 274 271 262 254 246 240 238 238 239 239 240 242 244 246 249 252 255 258 261 264 267
249 253 252 263 273 271 270 272 273 282 287 285 277 278 273 265 266 272 275 277 278 277 275 273 271 268 263 256 248 246 246 247 247 248 249 251 253 256 258 261 264 266 269 271
245 249 248 246 258 269 269 267 268 277 285 284 272 265 269 263 260 262 266 270 273 274 275 274 271 268 266 262 257 254 253 253 254 255 256 258 260 262 264 267 269 271 273 275
243 248 247 246 254 262 263 265 266 270 273 273 271 268 264 261 259 261 264 266 267 268 271 274 272 269 268 267 264 261 260 260 260 260 261 263 265 267 269 270 272 274 275 277
242 246 247 251 257 260 260 259 263 267 270 271 271 267 261 256 255 258 262 265 265 265 267 271 272 270 268 267 266 265 263 262 262 262 263 265 267 269 270 272 275 276 277 278
239 243 248 253 258 258 258 259 261 263 266 267 267 268 265 260 254 255 259 263 263 264 266 268 269 269 267 267 264 262 263 264 265 265 267 268 270 271 272 274 275 276 277 279
240 242 247 249 254 257 258 258 259 260 262 265 267 268 266 265 262 260 259 260 259 261 265 267 267 265 265 265 265 262 260 262 264 265 267 268 269 271 273 274 275 276 278 280
239 240 243 245 253 261 263 260 259 259 261 265 267 267 268 267 266 262 261 259 258 258 261 263 264 264 264 263 263 263 262 262 263 265 269 270 271 272 273 275 277 278 279 280
240 239 242 245 249 255 260 260 259 261 264 267 268 269 269 269 266 263 262 259 258 259 261 262 261 262 261 260 260 262 264 264 264 266 267 270 273 274 276 278 279 280 281 282
240 241 243 246 250 255 256 258 258 259 262 265 268 270 270 268 266 266 264 262 260 260 262 263 262 261 260 260 260 262 266 267 267 268 269 271 272 274 277 280 281 281 282 282
241 245 243 242 246 251 253 256 258 260 264 267 270 270 271 271 269 268 267 266 265 264 263 263 261 260 261 260 261 263 266 270 271 272 272 274 275 277 279 280 280 282 283 284
239 239 238 239 244 249 254 256 259 261 264 268 271 272 273 273 272 270 270 271 271 269 266 264 263 262 262 262 263 265 268 270 272 274 275 276 278 279 280 282 283 284 284 285
233 235 238 241 245 250 254 257 260 262 265 269 271 273 274 276 275 272 271 272 273 271 271 268 267 267 266 266 269 271 274 276 276 277 279 281 282 283 284 284 285 285 286 286
239 240 242 246 249 253 256 258 261 264 267 269 272 275 276 277 275 273 273 274 273 272 272 272 272 272 273 275 275 277 279 281 282 282 283 284 284 285 286 286 287 287 287 287
243 245 247 251 254 257 259 261 264 266 268 270 273 276 276 275 273 272 274 275 275 275 277 278 278 279 279 279 281 283 284 285 285 285 285 286 287 287 288 288 289 289 289 289
Height
5896 5896 5896 5894 5893 5892 5889 5887 5884 5881 5877 5874 5871 5868 5864 5859 5855 5852 5849 5847 5845 5844 5844 5845 5847 5849 5852 5855 5857 5861 5865 5868 5871 5873 5875 5877 5878 5879 5880 5881 5881 5881 5881 5881
5894 5894 5894 5892 5891 5890 5888 5885 5883 5879 5875 5873 5870 5867 5863 5859 5856 5852 5849 5847 5845 5844 5843 5844 5845 5846 5849 5852 5855 5859 5863 5866 5869 5872 5874 5876 5877 5878 5880 5880 5880 5880 5881 5881
5892 5893 5891 5890 5889 5888 5886 5884 5881 5878 5874 5871 5869 5867 5863 5860 5856 5853 5850 5848 5846 5844 5844 5843 5844 5846 5848 5851 5853 5857 5861 5864 5868 5871 5873 5875 5877 5878 5879 5879 5879 5880 5880 5880
5889 5889 5889 5888 5888 5886 5885 5882 5879 5876 5873 5872 5870 5867 5863 5860 5858 5855 5852 5849 5847 5846 5845 5844 5845 5846 5848 5851 5854 5857 5860 5864 5867 5870 5872 5874 5876 5877 5878 5878 5879 5879 5879 5880
5886 5886 5886 5886 5886 5884 5882 5880 5877 5874 5872 5871 5869 5867 5865 5861 5858 5856 5853 5851 5849 5848 5847 5846 5845 5846 5848 5851 5854 5857 5860 5864 5867 5869 5872 5874 5875 5876 5877 5877 5878 5878 5879 5879
5883 5883 5884 5884 5883 5882 5880 5878 5875 5873 5872 5872 5868 5867 5865 5861 5859 5857 5855 5852 5851 5850 5849 5848 5847 5847 5849 5851 5854 5857 5861 5863 5866 5869 5871 5872 5874 5875 5875 5876 5877 5877 5878 5878
5881 5881 5881 5881 5880 5879 5877 5876 5876 5875 5874 5872 5867 5865 5864 5861 5859 5857 5855 5854 5852 5851 5851 5850 5850 5850 5851 5853 5855 5858 5861 5864 5866 5868 5870 5871 5872 5873 5874 5875 5876 5876 5877 5877
5879 5880 5879 5878 5878 5876 5875 5874 5874 5873 5873 5870 5866 5864 5862 5859 5858 5857 5856 5854 5854 5853 5852 5852 5852 5852 5852 5854 5856 5858 5861 5863 5865 5867 5868 5870 5871 5872 5873 5873 5874 5874 5875 5875
5875 5876 5875 5874 5873 5873 5872 5871 5870 5869 5868 5867 5866 5862 5860 5858 5857 5856 5856 5855 5854 5854 5854 5853 5853 5854 5855 5856 5857 5859 5861 5863 5864 5865 5867 5868 5869 5870 5871 5871 5872 5872 5873 5873
5870 5871 5871 5870 5870 5869 5869 5867 5866 5866 5866 5866 5864 5862 5860 5857 5856 5855 5855 5855 5854 5854 5854 5854 5854 5855 5856 5857 5858 5859 5860 5862 5863 5864 5865 5866 5867 5868 5868 5869 5869 5870 5870 5870
5866 5867 5867 5866 5865 5866 5865 5864 5863 5863 5862 5862 5862 5863 5857 5855 5854 5854 5853 5853 5853 5854 5854 5854 5854 5854 5855 5856 5857 5858 5859 5860 5861 5862 5862 5863 5864 5865 5865 5866 5866 5866 5866 5866
5861 5862 5862 5862 5861 5861 5860 5860 5860 5860 5859 5858 5858 5861 5854 5853 5852 5852 5851 5851 5851 5852 5852 5852 5853 5853 5853 5854 5855 5855 5856 5857 5858 5859 5859 5860 5860 5861 5861 5862 5862 5862 5862 5861
5856 5857 5858 5858 5859 5857 5856 5856 5856 5856 5855 5854 5855 5858 5851 5850 5849 5849 5849 5849 5849 5849 5849 5849 5850 5851 5851 5852 5852 5853 5853 5854 5855 5855 5856 5856 5856 5857 5857 5857 5857 5857 5857 5856
5851 5852 5854 5856 5855 5853 5853 5852 5852 5852 5852 5852 5851 5851 5848 5847 5846 5846 5846 5846 5846 5846 5846 5846 5847 5847 5848 5848 5849 5849 5850 5850 5851 5851 5851 5852 5852 5852 5852 5852 5852 5851 5851 5850
5846 5847 5848 5848 5848 5849 5849 5848 5848 5848 5848 5847 5847 5846 5844 5843 5842 5842 5842 5842 5842 5842 5843 5843 5843 5843 5843 5844 5844 5845 5845 5846 5846 5846 5846 5846 5847 5846 5846 5846 5845 5845 5844 5843
5840 5841 5842 5843 5843 5843 5844 5843 5843 5843 5843 5842 5842 5841 5839 5838 5838 5838 5838 5838 5838 5838 5839 5839 5838 5839 5839 5839 5839 5840 5840 5840 5840 5841 5841 5840 5840 5840 5839 5839 5838 5837 5836 5835
5833 5835 5837 5838 5838 5838 5839 5839 5838 5838 5838 5838 5837 5837 5835 5834 5834 5834 5834 5834 5834 5834 5834 5834 5834 5834 5834 5834 5834 5834 5834 5834 5834 5834 5834 5834 5833 5833 5832 5831 5830 5829 5828 5826
5827 5829 5830 5832 5833 5833 5836 5833 5833 5832 5832 5832 5831 5831 5830 5829 5829 5828 5828 5828 5828 5828 5828 5828 5828 5828 5828 5828 5828 5827 5828 5828 5828 5827 5827 5826 5825 5825 5824 5823 5822 5820 5819 5817
5820 5822 5824 5826 5827 5828 5828 5827 5827 5827 5827 5826 5825 5825 5824 5823 5823 5823 5822 5822 5822 5822 5822 5822 5822 5821 5821 5821 5821 5820 5820 5820 5820 5819 5818 5817 5816 5815 5814 5813 5812 5810 5808 5806
5812 5814 5818 5819 5821 5822 5822 5821 5820 5822 5821 5820 5819 5819 5818 5818 5817 5817 5816 5816 5816 5816 5815 5815 5814 5814 5814 5813 5813 5812 5812 5811 5811 5810 5809 5808 5807 5806 5805 5803 5801 5799 5797 5795
5805 5807 5810 5812 5814 5815 5814 5814 5815 5817 5816 5814 5813 5812 5812 5811 5811 5811 5810 5809 5809 5808 5808 5807 5806 5806 5805 5805 5804 5803 5803 5802 5801 5800 5799 5798 5797 5796 5794 5792 5790 5788 5786 5783
5798 5801 5803 5805 5807 5809 5807 5808 5809 5809 5808 5807 5807 5806 5805 5805 5804 5803 5803 5802 5801 5800 5800 5799 5798 5797 5796 5795 5795 5794 5794 5793 5792 5791 5789 5788 5787 5785 5783 5781 5779 5776 5773 5770
5791 5794 5796 5798 5801 5800 5800 5801 5801 5802 5801 5801 5801 5800 5799 5798 5797 5796 5795 5795 5794 5792 5791 5790 5789 5788 5787 5787 5787 5786 5785 5783 5782 5781 5779 5778 5776 5774 5772 5769 5766 5763 5760 5757
5783 5786 5788 5790 5791 5792 5793 5794 5794 5794 5794 5794 5794 5793 5792 5791 5790 5789 5788 5787 5786 5784 5783 5782 5781 5780 5779 5779 5777 5777 5776 5774 5772 5771 5769 5767 5765 5762 5759 5756 5753 5750 5746 5742
5777 5779 5782 5783 5784 5785 5786 5787 5787 5787 5787 5787 5786 5785 5784 5783 5782 5781 5780 5779 5778 5777 5775 5774 5773 5772 5771 5770 5769 5767 5766 5764 5762 5760 5758 5755 5752 5749 5746 5742 5739 5735 5730 5726
5771 5773 5776 5777 5778 5779 5779 5780 5780 5780 5780 5779 5778 5777 5776 5775 5774 5773 5772 5771 5770 5769 5768 5766 5765 5764 5762 5761 5760 5758 5756 5754 5751 5749 5746 5743 5739 5736 5732 5728 5724 5719 5714 5709